Flag Weather past 2 weeks in Los Angeles, California, U.S.A.

Now
61 °F

Clear.


Feels Like: 61 °F
Forecast: 59 / 77 °F
Wind: No wind

Location: Los Angeles / USC Campus Downtown

Current Time: Oct 30, 2014 at 5:36:01 AM

Latest Report: Oct 30, 2014 at 4:47 AM


Visibility: 10 mi

Pressure: 29.96 "Hg

Humidity: 83%

Dew point: 56 °F

Location of Los AngelesLocation

Historic Weather in Los Angeles — Graph

°F

Los Angeles temperature yesterday

Maximum temperature yesterday: 84 °F (at 12:47 PM)
Minimum temperature yesterday: 59 °F (at 5:47 AM)
Average temperature yesterday: 70 °F

Past Weeks' High & Low Weather Summary

 TemperatureHumidityPressure
High87 °F (Oct 24, 12:47 PM)90% (Oct 25, 4:47 AM)30.04 "Hg (Oct 25, 4:47 AM)
Low59 °F (Oct 28, 5:47 AM)20% (Oct 24, 12:47 PM)29.82 "Hg (Oct 21, 5:47 PM)
Average69 °F67%29.93 "Hg
* Reported Oct 15 3:47 AM — Oct 30 3:47 AM, Los Angeles, Weather by CustomWeather, © 2014

Note: Actual official high and low records may vary slightly from our data, if they occured in-between our weather recording intervals... More about our weather records

Advertising

Los Angeles weather history for previous 24 hours

 ConditionsComfort  
Time TempWeatherWind HumidityBarometerVisibility
3:47 AM
Oct 30
61 °FClear.No wind83%29.96 "Hg10 mi
2:47 AM62 °FClear.No wind83%29.97 "Hg10 mi
1:47 AM63 °FClear.No wind81%29.98 "Hg10 mi
12:47 AM63 °FClear.No wind78%29.98 "Hg10 mi
11:47 PM
Oct 29
65 °FClear.No wind76%29.99 "Hg10 mi
10:47 PM67 °FClear.No wind71%29.98 "Hg10 mi
9:47 PM67 °FClear.No wind71%29.96 "Hg10 mi
8:47 PM67 °FClear.No wind71%29.96 "Hg10 mi
7:47 PM68 °FClear.No wind70%29.95 "Hg10 mi
6:47 PM71 °FSunny.3 mph59%29.95 "Hg10 mi
5:47 PM74 °FSunny.7 mph46%29.94 "Hg10 mi
4:47 PM78 °FSunny.6 mph36%29.94 "Hg10 mi
3:47 PM80 °FSunny.3 mph36%29.94 "Hg10 mi
2:47 PM80 °FSunny.3 mph42%29.94 "Hg10 mi
1:47 PM83 °FSunny.No wind34%29.95 "Hg10 mi
12:47 PM84 °FSunny.No wind32%29.98 "Hg10 mi
11:47 AM83 °FSunny.No wind30%30.00 "Hg10 mi
10:47 AM80 °FSunny.No wind34%30.01 "Hg10 mi
9:47 AM74 °FSunny.No wind45%30.02 "Hg10 mi
8:47 AM67 °FSunny.No wind57%30.03 "Hg10 mi
7:47 AM61 °FClear.No wind72%30.02 "Hg10 mi
6:47 AM59 °FClear.No wind81%30.01 "Hg9 mi
5:47 AM59 °FClear.No wind81%30.00 "Hg10 mi
Weather by CustomWeather, © 2014

See weather overviewHow to use our weather pages